Regional Weather Roundup
Issued by NWS

Home | Current Version | Previous Version | Graphics & Text | Print | Product List | Glossary Off
Versions: 1 2 3 4 5 6 7 8 9 10 11 12 13 14 15 16 17 18 19 20 21 22 23 24 25 26 27 28 29 30 31 32 33 34 35 36 37 38 39 40 41 42 43 44 45 46 47 48 49 50

000
ASUS43 KDTX 121001
RWRMI
MICHIGAN HOURLY REGIONAL WEATHER ROUNDUP
NATIONAL WEATHER SERVICE DETROIT/PONTIAC MI
500 AM EST TUE DEC 12 2017

NOTE: "FAIR" INDICATES FEW OR NO CLOUDS BELOW 12,000 FEET WITH NO
SIGNIFICANT WEATHER AND/OR OBSTRUCTION TO VISIBILITY.

MIZ047>049-052>055-059>063-066>070-074>076-081>083-121100-
SOUTHEAST LOWER MICHIGAN

CITY           SKY/WX    TMP DP  RH WIND       PRES   REMARKS
ADRIAN         CLOUDY    26  19  74 NW12G22   29.76R WCI  16
ALMA           CLEAR     20  10  66 NW16G28   29.81R WCI   6
ANN ARBOR      FLURRIES  25  20  81 NW22G31   29.73R WCI  10
BAD AXE        CLOUDY    20  11  68 NW23      29.68R WCI   4
CARO           CLEAR     20  10  65 NW22G29   29.72R WCI   4
DETROIT CITY   LGT SNOW  28  21  75 NW16G26   29.69R WCI  16
DETROIT        LGT SNOW  28  20  71 NW17G24   29.72R BLWGSNOWWCI  16
FLINT          MIX PCPN  22  14  71 NW25G35   29.73R WCI   5
GROSSE ILE     CLOUDY    29  22  76 MISG      29.69R
HILLSDALE      MOCLDY    23  12  63 NW16G24   29.75R WCI  10
HOWELL         LGT SNOW  23  18  80 NW17G26   29.73R WCI   9

CITY           SKY/WX    TMP DP  RH WIND       PRES   REMARKS
JACKSON        CLOUDY    24  15  68 NW17G25   29.76R WCI  11
LAMBERTVILLE   FLURRIES  28  22  78 NW12G24   29.73R WCI  18
LANSING        CLOUDY    22  14  71 NW23G31   29.79R WCI   6
LAPEER         CLOUDY    23  12  62 N18G29    29.70R WCI   8
MASON          LGT SNOW  24  13  64 NW25G32   29.77R WCI   7
MONROE         FLURRIES  28  20  73 NW18G28   29.72R WCI  15
MT. CLEMENS    MIX PCPN  28  21  77 NW14G26   29.66R WCI  17
PONTIAC        LGT SNOW  24  18  77 NW18G33   29.69R WCI  10
PORT HOPE        N/A     23  14  68 NW26G39   29.65R WCI   6
PORT HURON     CLOUDY    27  16  63 NW15G25   29.66R WCI  15
TRI CITIES     FLURRIES  20  14  77 NW22      29.77R WCI   3
MIDLAND        LGT SNOW  20  15  79 NW16G24   29.77R WCI   6
TROY           CLOUDY    27  19  72 NW21G26   29.71R HAZE    WCI  14
SAGINAW HB     LGT SNOW  21  18  86 NW18G25   29.75R WCI   6
$$
MIZ043>046-050>051-056>058-064>065-071>073-077>080-121100-
SOUTHWEST LOWER MICHIGAN

CITY           SKY/WX    TMP DP  RH WIND       PRES   REMARKS
BATTLE CREEK   PTCLDY    21  12  68 N16G29    29.82R WCI   7
BENTON HARBOR  LGT SNOW  25  15  66 NW16G35   29.91R WCI  12
BIG RAPIDS     LGT SNOW  17  13  81 N9G16     29.82R WCI   6
COLDWATER      PTCLDY    23  11  59 NW13G22   29.80R WCI  12
FREMONT        FLURRIES  19  15  85 N12       29.87S WCI   6
HOLLAND        LGT SNOW  21  15  78 N16G22    29.89R VSB 1   WCI   7
GRAND RAPIDS   PTCLDY    20  13  74 NW17G25   29.85R WCI   5
IONIA          CLOUDY    22  12  67 NW20G29   29.82R WCI   7
KALAMAZOO      PTCLDY    22  11  62 N23G33    29.85R WCI   6
LUDINGTON      LGT SNOW  20   8  60 N22G30    29.90S WCI   3
MARSHALL       MOCLDY    22   8  55 NW8G24    29.80R WCI  13
MOUNT PLEASANT CLEAR     20  10  66 NW12G21   29.79R WCI   8
MUSKEGON       LGT SNOW  21  15  78 N21G26    29.91R WCI   5
SOUTH HAVEN    LGT SNOW  27  14  57 NW18G30   29.89R WCI  14
$$
MIZ016>042-121100-
NORTHERN LOWER MICHIGAN

CITY           SKY/WX    TMP DP  RH WIND       PRES   REMARKS
ALPENA         LGT SNOW  15  12  88 NW15G26   29.71R VSB 3/4 WCI   0
BEAVER ISLAND  MOCLDY    14   5  69 N16G32    29.88R WCI  -2
BELLAIRE       CLOUDY    16   7  66 NW13G26   29.87R WCI   3
CADILLAC       MOCLDY    15   7  71 NW21G28   29.77S WCI  -2
CHARLEVOIX     LGT SNOW  17   8  69 NW23G36   29.89R WCI  -1
FRANKFORT      LGT SNOW  20  10  65 NW15G30   29.90R WCI   7
GAYLORD        MIX PCPN  11   2  67 NW13G25   29.74S WCI  -4
GRAYLING       LGT SNOW  15   7  71 NW22G36   29.77R WCI  -4
HARBOR SPRINGS CLOUDY    13   2  63 N12G22    29.83R WCI  -1
HOUGHTON LAKE  MIX PCPN  15   5  64 NW25G39   29.76R WCI  -4
MANISTEE       LGT SNOW  19   9  65 NW24G32   29.89R WCI   2
OSCODA         CLEAR     16   5  62 NW25G38   29.69R WCI  -2
PELLSTON       CLOUDY    11   4  73 N18G26    29.84R BLWGSNOWWCI  -7
ROGERS CITY    LGT SNOW  15   8  74 NW21G35   29.75R WCI  -2
TRAVERSE CITY  LGT SNOW  18  11  74 N16G30    29.86R WCI   3
$$
MIZ007>008-015-121100-
EASTERN UPPER MICHIGAN

CITY           SKY/WX    TMP DP  RH WIND       PRES   REMARKS
KINROSS        CLEAR      4  -2  76 N16G23    29.81R WCI -15
MACKINAC ISLAN CLOUDY    12   5  71 N15G30    29.80R WCI  -4
NEWBERRY       LGT SNOW   8   7  93 NW9G24    29.86R WCI  -5
S. S. MARIE    PTCLDY     4  -5  66 N10G28    29.83R WCI -11
MUNISING         N/A     18  11  74 N25G33    29.93S WCI   0
$$
MIZ004>006-011>014-085-121100-
CENTRAL UPPER MICHIGAN

CITY           SKY/WX    TMP DP  RH WIND       PRES   REMARKS
MANISTIQUE     LGT SNOW  12   7  81 N12G23    29.90R WCI  -2
ESCANABA       PTCLDY    11   1  64 NW17G23   29.97R WCI  -6
MENOMINEE      CLEAR     12   0  58 N12G21    30.02  WCI  -2
$$
MIZ001>003-009>011-084-121100-
WESTERN UPPER MICHIGAN

CITY           SKY/WX    TMP DP  RH WIND       PRES   REMARKS
IRON MOUNTAIN  CLOUDY    11   1  64 N9        29.97S WCI  -2
HOUGHTON       CLOUDY    10   0  63 N15       30.00F HAZE    WCI  -7
COPPER HARBOR    N/A     14   9  80 NE25G37   30.02F WCI  -5
IRONWOOD       FLURRIES  12   7  80 NW10      30.06F WCI  -1
$$

ABBREVIATIONS USED IN REMARKS
   TC - TEMPERATURE IN CELSIUS
  WCI - WIND CHILL INDEX
   HX - HEAT INDEX
  VSB - VISIBILITY





USA.gov is the U.S. government's official web portal to all federal, state and local government web resources and services.